Date String (YYYY-MM-DD hh:mm:ss) UTC,Instrument flags,absolute air pressure of the measurement (hPa),sample flow rate (lpm),inlet stack bypass flow (lpm),air temperature of the measurement (°C),ambient temperature measured by the external sensor (°C),aerosol sample conditioner tube jacket temperature (°C),OPC LED temperature (°C),internal box temperature (°C),relative humidity of the measurement (%),span deviation,mass concentration of particles derived from Lorenz-Mie calculation of OPC scattering (μg/m³),mass concentration of particles derived from Lorenz-Mie calculation of OPC scattering (μg/m³),mass concentration of particles derived from Lorenz-Mie calculation of OPC scattering (μg/m³)
DateTimeUTC,F1_M11,P_M11,Q1_M11,Q2_M11,T1_M11,T2_M11,T3_M11,T4_M11,T5_M11,U1_M11,ZSPAN_M11,X0_M11,X2_M11,X1_M11
2023-06-27 16:00:00,SystemResetWarning,0826.0,4.99,000.00,032.0,028.0,000.0,039.9,031.9,34.8,0003.1,0023.37,0009.97,0007.64
2023-06-27 16:01:00,SystemResetWarning,0826.0,5.02,000.00,032.1,028.0,000.0,039.9,032.0,34.8,0002.9,0023.37,0009.91,0007.62
2023-06-27 16:02:00,SystemResetWarning,0826.0,4.97,000.00,032.2,026.7,000.0,039.9,032.2,34.7,0002.9,0024.12,0009.86,0007.62
2023-06-27 16:03:00,SystemResetWarning,0826.1,5.02,000.00,032.3,025.4,000.0,039.8,032.2,34.4,0003.0,0024.67,0009.83,0007.63
2023-06-27 16:04:00,SystemResetWarning,0826.2,5.00,000.00,032.4,025.2,000.0,039.8,032.1,33.8,0003.6,0024.80,0009.85,0007.65
2023-06-27 16:05:00,SystemResetWarning,0826.2,4.98,000.00,032.2,025.5,000.0,039.8,031.7,35.0,0003.6,0024.66,0009.88,0007.69
2023-06-27 16:06:00,SystemResetWarning,0826.2,5.04,000.00,032.2,026.0,000.0,039.9,031.7,34.9,0003.4,0024.81,0009.88,0007.72
2023-06-27 16:07:00,SystemResetWarning,0826.1,4.97,000.00,032.3,026.4,000.0,039.9,031.7,34.5,0003.5,0024.45,0009.88,0007.75
2023-06-27 16:08:00,SystemResetWarning,0826.1,5.00,000.00,032.3,026.8,000.0,039.9,031.7,34.4,0003.4,0024.41,0009.86,0007.76
2023-06-27 16:09:00,SystemResetWarning,0826.0,5.01,000.00,032.3,027.2,000.0,040.0,031.8,33.3,0003.2,0024.98,0009.84,0007.77
2023-06-27 16:10:00,SystemResetWarning,0826.0,5.00,000.00,032.3,027.5,000.0,040.0,031.9,34.0,0003.2,0025.37,0009.93,0007.79
2023-06-27 16:11:00,SystemResetWarning,0826.1,5.00,000.00,032.3,027.8,000.0,040.1,031.9,33.5,0003.2,0025.57,0009.99,0007.80
2023-06-27 16:12:00,SystemResetWarning,0826.0,5.00,000.00,032.3,028.0,000.0,040.1,032.0,33.0,0003.4,0026.62,0010.05,0007.82
2023-06-27 16:13:00,SystemResetWarning,0826.0,4.98,000.00,032.3,026.9,000.0,040.0,032.1,32.8,0003.7,0026.60,0010.04,0007.84
2023-06-27 16:14:00,SystemResetWarning,0826.0,5.00,000.00,032.3,025.5,000.0,040.0,032.0,33.7,0003.8,0026.19,0010.03,0007.84
2023-06-27 16:15:00,SystemResetWarning,0826.0,5.01,000.00,032.3,025.2,000.0,040.0,032.0,34.4,0003.5,0026.13,0010.02,0007.85
2023-06-27 16:16:00,SystemResetWarning,0826.1,5.00,000.00,032.1,025.5,000.0,039.9,031.6,33.8,0003.1,0026.79,0010.01,0007.86
2023-06-27 16:17:00,SystemResetWarning,0826.0,4.99,000.00,031.9,025.9,000.0,039.9,031.6,33.8,0003.3,0027.00,0009.99,0007.86
2023-06-27 16:18:00,SystemResetWarning,0825.9,5.00,000.00,031.8,026.3,000.0,039.9,031.5,34.1,0003.4,0028.08,0010.05,0007.85
2023-06-27 16:19:00,SystemResetWarning,0825.9,5.00,000.00,031.8,026.7,000.0,039.9,031.6,34.2,0003.4,0029.38,0010.06,0007.85
2023-06-27 16:20:00,SystemResetWarning,0825.9,4.99,000.00,031.7,027.1,000.0,039.9,031.7,35.0,0003.8,0029.33,0010.10,0007.86
2023-06-27 16:21:00,SystemResetWarning,0825.9,5.01,000.00,031.8,027.4,000.0,039.9,031.8,34.1,0003.8,0028.57,0010.10,0007.88
2023-06-27 16:22:00,SystemResetWarning,0825.9,4.98,000.00,031.8,027.7,000.0,039.9,031.8,33.9,0003.6,0028.54,0010.03,0007.89
2023-06-27 16:23:00,SystemResetWarning,0825.9,5.01,000.00,031.8,027.7,000.0,039.9,031.9,34.2,0003.7,0028.46,0010.06,0007.92
2023-06-27 16:24:00,SystemResetWarning,0825.9,4.99,000.00,031.9,026.2,000.0,039.8,032.0,34.1,0003.3,0027.75,0010.12,0007.94
2023-06-27 16:25:00,SystemResetWarning,0825.9,5.00,000.00,031.9,025.1,000.0,039.7,031.9,33.9,0002.6,0028.29,0010.19,0007.95
2023-06-27 16:26:00,SystemResetWarning,0825.9,5.01,000.00,031.8,025.1,000.0,039.7,031.8,34.2,0002.7,0028.83,0010.20,0007.94
2023-06-27 16:27:00,SystemResetWarning,0825.9,5.00,000.00,031.6,025.5,000.0,039.7,031.4,34.4,0002.6,0028.44,0010.21,0007.92
2023-06-27 16:28:00,SystemResetWarning,0825.9,4.98,000.00,031.5,025.9,000.0,039.7,031.4,35.2,0002.3,0028.58,0010.19,0007.89
2023-06-27 16:29:00,SystemResetWarning,0825.9,5.03,000.00,031.5,026.4,000.0,039.7,031.4,34.7,0002.0,0028.04,0010.15,0007.85
2023-06-27 16:30:00,SystemResetWarning,0825.9,4.96,000.00,031.6,026.8,000.0,039.6,031.5,34.5,0001.8,0026.88,0010.15,0007.85
2023-06-27 16:31:00,SystemResetWarning,0825.9,5.04,000.00,031.6,027.1,000.0,039.6,031.6,34.5,0001.7,0026.93,0010.19,0007.82
2023-06-27 16:32:00,SystemResetWarning,0825.9,4.96,000.00,031.6,027.4,000.0,039.6,031.7,34.9,0001.8,0027.18,0010.23,0007.79
2023-06-27 16:33:00,SystemResetWarning,0825.9,5.04,000.00,031.7,027.7,000.0,039.7,031.8,35.2,0002.2,0027.51,0010.26,0007.75
2023-06-27 16:34:00,SystemResetWarning,0825.9,4.97,000.00,031.9,027.8,000.0,039.7,031.9,33.5,0001.8,0027.98,0010.27,0007.72
2023-06-27 16:35:00,SystemResetWarning,0825.9,5.01,000.00,032.0,026.6,000.0,039.6,032.1,33.3,0002.2,0029.25,0010.23,0007.69
2023-06-27 16:36:00,SystemResetWarning,0825.9,5.01,000.00,032.1,025.3,000.0,039.6,032.0,32.8,0002.4,0030.34,0010.22,0007.68
2023-06-27 16:37:00,SystemResetWarning,0825.9,5.00,000.00,032.1,025.1,000.0,039.6,031.9,32.4,0002.7,0029.91,0010.26,0007.67
2023-06-27 16:38:00,SystemResetWarning,0825.9,5.00,000.00,032.0,025.4,000.0,039.6,031.6,32.2,0003.0,0030.87,0010.24,0007.69
2023-06-27 16:39:00,SystemResetWarning,0825.9,5.00,000.00,031.8,025.9,000.0,039.7,031.4,32.6,0003.2,0030.36,0010.30,0007.70
2023-06-27 16:40:00,SystemResetWarning,0825.9,5.00,000.00,031.7,026.3,000.0,039.7,031.4,33.5,0003.0,0029.66,0010.29,0007.72
2023-06-27 16:41:00,SystemResetWarning,0825.9,5.00,000.00,031.7,026.7,000.0,039.7,031.5,33.4,0002.9,0030.06,0010.28,0007.70
2023-06-27 16:42:00,SystemResetWarning,0825.9,5.00,000.00,031.6,027.1,000.0,039.7,031.5,33.1,0003.0,0029.88,0010.23,0007.70
2023-06-27 16:43:00,SystemResetWarning,0825.9,5.00,000.00,031.6,027.4,000.0,039.7,031.6,33.8,0002.8,0031.02,0010.18,0007.70
2023-06-27 16:44:00,SystemResetWarning,0825.9,4.98,000.00,031.6,027.7,000.0,039.7,031.7,33.8,0002.3,0031.12,0010.24,0007.71
2023-06-27 16:45:00,SystemResetWarning,0825.8,5.00,000.00,031.6,027.5,000.0,039.7,031.8,34.2,0002.2,0030.52,0010.12,0007.71
2023-06-27 16:46:00,SystemResetWarning,0825.8,5.01,000.00,031.6,026.0,000.0,039.6,031.8,34.5,0002.4,0029.38,0010.07,0007.72
2023-06-27 16:47:00,SystemResetWarning,0825.8,4.99,000.00,031.6,025.0,000.0,039.5,031.8,34.2,0002.1,0027.78,0010.07,0007.72
2023-06-27 16:48:00,SystemResetWarning,0825.7,4.98,000.00,031.6,025.1,000.0,039.5,031.6,34.4,0001.7,0026.90,0010.02,0007.73
2023-06-27 16:49:00,SystemResetWarning,0825.7,5.02,000.00,031.4,025.5,000.0,039.5,031.3,35.0,0001.0,0025.83,0010.04,0007.72
2023-06-27 16:50:00,SystemResetWarning,0825.7,5.00,000.00,031.4,025.9,000.0,039.5,031.3,34.1,0000.9,0025.99,0010.07,0007.74
2023-06-27 16:51:00,SystemResetWarning,0825.7,4.98,000.00,031.4,026.4,000.0,039.5,031.4,33.9,0001.1,0027.40,0010.08,0007.74
2023-06-27 16:52:00,SystemResetWarning,0825.8,5.01,000.00,031.4,026.8,000.0,039.5,031.4,32.6,0001.6,0028.98,0010.10,0007.76
2023-06-27 16:53:00,SystemResetWarning,0825.8,5.01,000.00,031.3,027.2,000.0,039.5,031.5,33.6,0001.6,0028.58,0010.14,0007.78
2023-06-27 16:54:00,SystemResetWarning,0825.8,5.00,000.00,031.3,027.5,000.0,039.5,031.5,34.2,0001.8,0027.04,0010.14,0007.78
2023-06-27 16:55:00,SystemResetWarning,0825.8,4.99,000.00,031.3,027.7,000.0,039.5,031.6,34.6,0002.1,0027.27,0010.10,0007.78
2023-06-27 16:56:00,SystemResetWarning,0825.8,5.00,000.00,031.3,027.8,000.0,039.5,031.7,34.2,0002.4,0027.73,0010.18,0007.80
2023-06-27 16:57:00,SystemResetWarning,0825.8,4.99,000.00,031.4,026.4,000.0,039.4,031.7,32.7,0002.6,0027.08,0010.22,0007.83
2023-06-27 16:58:00,SystemResetWarning,0825.7,5.02,000.00,031.3,025.2,000.0,039.3,031.6,31.6,0002.9,0026.88,0010.22,0007.86
2023-06-27 16:59:00,SystemResetWarning,0825.7,5.01,000.00,031.3,025.1,000.0,039.3,031.6,31.0,0003.0,0027.11,0010.22,0007.89
